FW5790 Weather Reports


Display with metric or nautical units.
time (UTC)temp
F
wind
direction
speed
MPH
gust
MPH
rain 1hr
in
rain 24hr
in
rain mn
in
humidity
%
barometer
mb
20260503184600 63 44 2.0 4.0 0.00 0.00 0.00 41 1019.1
20260503183045 62 44 2.0 5.0 0.00 0.00 0.00 45 1019.0
20260503181602 63 95 3.0 4.0 0.00 0.00 0.00 42 1019.3
20260503180059 63 97 1.0 3.0 0.00 0.00 0.00 41 1019.3
20260503174555 62 21 1.0 5.0 0.00 0.00 0.00 45 1019.5
20260503173057 61 63 2.0 8.0 0.00 0.00 0.00 38 1019.8
20260503171544 62 212 2.0 3.0 0.00 0.00 0.00 42 1019.9
20260503081546 34 0 0.0 0.0 0.00 0.00 0.00 87 1020.0
20260503071552 35 0 0.0 0.0 0.00 0.00 0.00 87 1019.7
20260503054543 37 0 0.0 0.0 0.00 0.00 0.00 85 1020.2
20260503053047 37 0 0.0 0.0 0.00 0.00 0.00 85 1020.1
20260503051546 38 0 0.0 0.0 0.00 0.00 0.00 84 1020.2
20260503050045 38 0 0.0 0.0 0.00 0.00 0.00 83 1020.1
20260503044548 38 0 0.0 0.0 0.00 0.00 0.00 83 1020.2
20260503043054 39 0 0.0 0.0 0.00 0.00 0.00 81 1020.3
20260503041547 39 0 0.0 0.0 0.00 0.00 0.00 81 1020.1
20260503040052 39 0 0.0 0.0 0.00 0.00 0.00 80 1020.1
20260503034544 40 0 0.0 0.0 0.00 0.00 0.00 80 1020.1
20260503033043 41 0 0.0 0.0 0.00 0.00 0.00 80 1020.1
20260503031547 41 0 0.0 0.0 0.00 0.00 0.00 80 1020.0
20260503030112 42 0 0.0 0.0 0.00 0.00 0.00 78 1020.0
20260503024557 43 0 0.0 0.0 0.00 0.00 0.00 77 1019.9
20260503023051 44 0 0.0 0.0 0.00 0.00 0.00 76 1019.7
20260503021542 45 0 0.0 0.0 0.00 0.00 0.00 75 1019.6
20260503020041 45 0 0.0 0.0 0.00 0.00 0.00 74 1019.3
20260503014601 46 0 0.0 0.0 0.00 0.00 0.00 72 1019.2
20260503013052 46 0 0.0 0.0 0.00 0.00 0.00 72 1019.0
20260503011553 47 0 0.0 0.0 0.00 0.00 0.00 72 1018.6
20260503010050 47 0 0.0 0.0 0.00 0.00 0.00 72 1018.5
20260503004546 48 0 0.0 0.0 0.00 0.00 0.00 71 1018.5
20260503003118 49 0 0.0 0.0 0.00 0.00 0.00 71 1018.3
20260503001542 49 0 0.0 0.0 0.00 0.00 0.00 68 1018.2
20260503000051 50 0 0.0 0.0 0.00 0.00 0.00 67 1018.2
20260502234548 51 0 0.0 0.0 0.00 0.00 0.00 65 1018.0
20260502233041 51 0 0.0 0.0 0.00 0.00 0.00 64 1018.0
20260502231548 52 0 0.0 0.0 0.00 0.00 0.00 62 1017.9
20260502230047 53 0 0.0 0.0 0.00 0.00 0.00 64 1017.8
20260502224544 53 0 0.0 0.0 0.00 0.00 0.00 62 1018.0
20260502223043 53 0 0.0 1.0 0.00 0.00 0.00 62 1018.0
20260502221546 53 0 0.0 1.0 0.00 0.00 0.00 59 1017.8
20260502220047 53 169 0.0 2.0 0.00 0.00 0.00 58 1017.7
20260502214547 53 0 0.0 1.0 0.00 0.00 0.00 62 1017.8
20260502213046 52 0 0.0 1.0 0.00 0.00 0.00 61 1017.9
20260502211549 52 0 0.0 0.0 0.00 0.00 0.00 62 1018.0
20260502210048 52 0 0.0 1.0 0.00 0.00 0.00 63 1018.0
20260502204601 53 149 0.0 2.0 0.00 0.00 0.00 60 1018.0
20260502203106 54 131 0.0 3.0 0.00 0.00 0.00 59 1018.0
20260502201543 54 132 0.0 1.0 0.00 0.00 0.00 60 1018.0
20260502200046 53 0 0.0 2.0 0.00 0.00 0.00 61 1018.1
20260502194544 53 98 0.0 2.0 0.00 0.00 0.00 62 1018.2
20260502193044 53 96 1.0 2.0 0.00 0.00 0.00 62 1018.1
20260502191556 53 0 0.0 1.0 0.00 0.00 0.00 62 1018.3
20260502190047 53 0 0.0 2.0 0.00 0.00 0.00 61 1018.4